Fernandina Beach, FL

9:26 PM EST on December 15, 2019 (GMT -0500)
Fernandina Beach

Weather History for KFHB - October, 2019

Change the Weather History Date:

Monday, October 7, 2019

  Actual Average (WUND) Record (WUND)
Temperature  
Mean Temperature 76 °F -  
Max Temperature 79 °F - - (-1)
Min Temperature 73 °F - - (-1)
Cooling Degree Days 11    
Growing Degree Days 26 (Base 50)    
Moisture  
Dew Point 73 °F    
Average Humidity 90    
Maximum Humidity 100    
Minimum Humidity 73    
Precipitation  
Precipitation 0.25 in - - ()
Sea Level Pressure  
Sea Level Pressure 29.98 in    
Wind  
Wind Speed 11 mph (ENE)    
Max Wind Speed 24 mph    
Max Gust Speed 31 mph    
Visibility 8 miles    
Events Rain , Thunderstorm    
Averages and records for this station are not official NWS values.
T = Trace of Precipitation, MM = Missing Value Source: NWS Daily Summary

Daily Weather History Graph

Daily Weather History Graph

Search for Another Location

Airport or City:

Astronomy

Oct. 07, 2019 Rise Set
Actual Time 7:22 AM EDT 7:04 PM EDT
Civil Twilight 6:58 AM EDT 7:28 PM EDT
Nautical Twilight 6:30 AM EDT 7:55 PM EDT
Astronomical Twilight 6:02 AM EDT 8:23 PM EDT
Moon 3:57 PM EDT (10/7) 1:43 AM EDT (10/7)
Length of Visible Light 12h 29m
Length of Day
11h 41m
Waxing Gibbous, 69% of the Moon is Illuminated
Oct 7
Waxing Gibbous
Oct 13
Full
Oct 21
Last Quarter
Oct 27
New
Nov 4
First Quarter

Hourly Weather History & Observations

Time (EDT) Temp. Dew Point Humidity Pressure Visibility Wind Dir Wind Speed Gust Speed Precip Events Conditions
12:15 AM 78.4 °F 70.2 °F 76% 30.06 in 10.0 mi East 13.8 mph 20.7 mph N/A   Scattered Clouds
12:35 AM 79.0 °F 70.2 °F 74% 30.05 in 10.0 mi East 16.1 mph 23.0 mph N/A   Mostly Cloudy
12:55 AM 79.0 °F 70.3 °F 75% 30.05 in 10.0 mi East 15.0 mph 20.7 mph N/A   Mostly Cloudy
1:15 AM 79.2 °F 70.5 °F 75% 30.04 in 10.0 mi ESE 17.3 mph 23.0 mph 0.01 in   Overcast
1:35 AM 79.0 °F 69.8 °F 73% 30.03 in 10.0 mi East 13.8 mph 19.6 mph 0.01 in   Mostly Cloudy
1:55 AM 79.0 °F 69.6 °F 73% 30.03 in 10.0 mi East 13.8 mph 19.6 mph 0.01 in   Scattered Clouds
2:15 AM 79.0 °F 70.0 °F 74% 30.02 in 10.0 mi East 13.8 mph - 0.01 in   Scattered Clouds
2:35 AM 79.2 °F 70.3 °F 74% 30.01 in 10.0 mi East 13.8 mph 20.7 mph 0.01 in   Scattered Clouds
2:55 AM 79.2 °F 71.2 °F 77% 30.01 in 10.0 mi East 13.8 mph 18.4 mph 0.01 in   Mostly Cloudy
3:15 AM 79.5 °F 71.4 °F 76% 30.00 in 10.0 mi ESE 11.5 mph - 0.01 in   Overcast
3:35 AM 79.3 °F 71.6 °F 77% 29.99 in 10.0 mi ESE 13.8 mph 19.6 mph 0.01 in   Overcast
3:55 AM 79.5 °F 70.9 °F 75% 29.99 in 10.0 mi ESE 13.8 mph - 0.01 in   Mostly Cloudy
4:15 AM 79.3 °F 71.2 °F 76% 29.99 in 10.0 mi ESE 13.8 mph - N/A   Mostly Cloudy
4:35 AM 79.3 °F 70.7 °F 75% 29.98 in 10.0 mi ESE 9.2 mph 17.3 mph 0.01 in   Scattered Clouds
4:55 AM 79.2 °F 70.5 °F 75% 29.98 in 10.0 mi East 9.2 mph 17.3 mph 0.01 in   Scattered Clouds
5:15 AM 79.2 °F 71.1 °F 76% 29.99 in 10.0 mi ESE 11.5 mph - N/A   Scattered Clouds
5:35 AM 79.3 °F 71.2 °F 76% 29.99 in 10.0 mi East 10.4 mph - N/A   Scattered Clouds
5:55 AM 79.3 °F 71.6 °F 77% 29.99 in 10.0 mi East 9.2 mph - N/A   Scattered Clouds
6:15 AM 79.2 °F 72.5 °F 80% 29.99 in 10.0 mi East 10.4 mph - N/A   Mostly Cloudy
6:35 AM 79.2 °F 72.1 °F 79% 29.99 in 10.0 mi East 11.5 mph - N/A   Mostly Cloudy
6:55 AM 79.5 °F 72.0 °F 78% 29.99 in 10.0 mi East 10.4 mph 17.3 mph N/A   Scattered Clouds
7:15 AM 79.5 °F 72.7 °F 79% 29.99 in 10.0 mi East 10.4 mph - N/A   Mostly Cloudy
7:55 AM 79.7 °F 73.2 °F 80% 29.99 in 10.0 mi East 10.4 mph - N/A   Overcast
8:15 AM 79.2 °F 73.8 °F 83% 30.00 in 10.0 mi East 10.4 mph - N/A Thunderstorm Thunderstorm
8:35 AM 79.3 °F 73.6 °F 82% 30.01 in 10.0 mi SE 24.2 mph 27.6 mph N/A Thunderstorm Thunderstorm
8:55 AM 73.6 °F 72.9 °F 98% 30.01 in 1.8 mi SSE 24.2 mph 31.1 mph N/A   Overcast
9:15 AM 73.9 °F 73.6 °F 99% 30.01 in 2.0 mi ESE 9.2 mph - N/A Rain Rain
9:35 AM 74.7 °F 74.1 °F 98% 30.00 in 4.0 mi ESE 11.5 mph - N/A Rain Light Rain
9:55 AM 74.5 °F 73.6 °F 97% 30.01 in 7.0 mi ESE 9.2 mph - 0.01 in Rain Light Rain
10:15 AM 74.8 °F 74.1 °F 98% 30.02 in 4.0 mi East 10.4 mph - N/A Rain Rain
10:35 AM 74.3 °F 73.4 °F 97% 30.02 in 3.5 mi SE 9.2 mph - 0.01 in Rain Rain
10:55 AM 74.5 °F 74.1 °F 99% 30.02 in 2.0 mi ENE 8.1 mph - 0.01 in Rain Rain
11:15 AM 75.2 °F 74.8 °F 99% 30.02 in 4.0 mi ENE 8.1 mph - 0.01 in Rain Light Rain
11:35 AM 75.4 °F 74.8 °F 98% 30.02 in 10.0 mi ENE 8.1 mph - 0.01 in Rain Light Rain
11:55 AM 75.2 °F 74.5 °F 98% 30.01 in 5.0 mi ENE 5.8 mph - 0.02 in Rain Light Rain
12:15 PM 76.5 °F 76.1 °F 99% 30.01 in 5.0 mi East 6.9 mph - N/A Rain Light Rain
12:35 PM 76.5 °F 75.4 °F 96% 30.00 in 10.0 mi ENE 6.9 mph - 0.01 in   Overcast
12:55 PM 75.7 °F 74.5 °F 96% 30.00 in 7.0 mi NE 6.9 mph - 0.01 in Rain Rain
1:15 PM 75.4 °F 74.3 °F 96% 29.99 in 5.0 mi Calm Calm - N/A Rain Rain
1:35 PM 74.8 °F 73.6 °F 96% 29.99 in 5.0 mi NE 6.9 mph - 0.01 in Rain Rain
1:55 PM 73.9 °F 73.0 °F 97% 29.97 in 3.5 mi NE 5.8 mph - 0.02 in Rain Rain
2:15 PM 73.8 °F 73.2 °F 98% 29.96 in 4.0 mi North 4.6 mph - N/A Rain Rain
2:35 PM 73.2 °F 72.7 °F 98% 29.95 in 5.0 mi North 6.9 mph - 0.01 in Rain Rain
2:55 PM 73.2 °F 72.9 °F 99% 29.95 in 5.0 mi NNE 5.8 mph - 0.02 in Rain Rain
3:15 PM 73.9 °F 73.8 °F 99% 29.97 in 5.0 mi NW 3.5 mph - 0.01 in Rain Rain
3:35 PM 74.1 °F 74.1 °F 100% 29.96 in 5.0 mi North 4.6 mph - 0.01 in Rain Rain
3:55 PM 74.3 °F 74.3 °F 100% 29.96 in 2.5 mi NNE 3.5 mph - 0.02 in Rain Rain
4:15 PM 74.3 °F 74.3 °F 100% 29.95 in 3.5 mi NNE 4.6 mph - 0.01 in Rain Light Rain
4:35 PM 74.3 °F 74.3 °F 100% 29.95 in 3.5 mi NNE 5.8 mph - 0.01 in Rain Light Rain
4:55 PM 74.3 °F 74.3 °F 100% 29.95 in 3.5 mi NE 6.9 mph - 0.02 in Rain Rain
5:15 PM 74.3 °F 74.1 °F 99% 29.94 in 5.0 mi NNE 8.1 mph - 0.01 in Rain Rain
5:55 PM 74.5 °F 74.1 °F 99% 29.94 in 7.0 mi NNE 9.2 mph - 0.02 in Rain Light Rain
6:15 PM 74.8 °F 74.5 °F 99% 29.94 in 7.0 mi NNE 8.1 mph - N/A Rain Light Rain
6:35 PM 75.2 °F 74.7 °F 98% 29.95 in 10.0 mi NNE 8.1 mph - 0.01 in Rain Light Rain
6:55 PM 75.2 °F 74.1 °F 96% 29.95 in 10.0 mi NNE 10.4 mph - 0.01 in Rain Light Rain
7:15 PM 74.8 °F 73.8 °F 96% 29.94 in 7.0 mi NNE 11.5 mph - 0.01 in Rain Rain
7:35 PM 74.8 °F 73.6 °F 96% 29.95 in 7.0 mi NE 11.5 mph - 0.01 in Rain Rain
7:55 PM 74.7 °F 73.6 °F 96% 29.96 in 7.0 mi NE 10.4 mph - 0.02 in Rain Rain
8:15 PM 74.3 °F 73.4 °F 97% 29.94 in 10.0 mi NNE 11.5 mph - N/A Rain Light Rain
8:35 PM 74.3 °F 73.4 °F 97% 29.95 in 10.0 mi NE 8.1 mph - N/A Rain Light Rain
9:35 PM 73.9 °F 72.7 °F 96% 29.95 in 10.0 mi NNE 6.9 mph - 0.01 in   Scattered Clouds
9:55 PM 73.9 °F 72.7 °F 96% 29.95 in 10.0 mi NE 6.9 mph - 0.01 in   Scattered Clouds
10:15 PM 73.8 °F 72.7 °F 96% 29.95 in 10.0 mi ENE 5.8 mph - N/A   Clear
10:35 PM 73.8 °F 72.5 °F 96% 29.95 in 10.0 mi NE 5.8 mph - 0.01 in   Scattered Clouds
10:55 PM 74.3 °F 72.5 °F 94% 29.95 in 10.0 mi NE 4.6 mph - 0.01 in   Scattered Clouds
11:15 PM 74.1 °F 72.5 °F 95% 29.94 in 10.0 mi ENE 5.8 mph - N/A   Clear
11:35 PM 74.5 °F 72.7 °F 94% 29.94 in 10.0 mi NE 5.8 mph - 0.01 in   Clear
11:55 PM 75.4 °F 73.4 °F 94% 29.93 in 10.0 mi NE 6.9 mph - 0.01 in   Clear